Regional Weather Roundup
Issued by NWS Jackson, KY

Home | Current Version | Previous Version | Text Only | Print | Product List | Glossary On
Versions: 1 2 3 4 5 6 7 8 9 10 11 12 13 14 15 16 17 18 19 20 21 22 23 24 25 26 27 28 29 30 31 32 33 34 35 36 37 38 39 40 41 42 43 44 45 46 47 48 49 50
000
ASUS43 KJKL 230110
RWRJKL

EAST KENTUCKY HOURLY WEATHER ROUNDUP
NATIONAL WEATHER SERVICE JACKSON KY
900 PM EDT TUE AUG 22 2017

NOTE: "FAIR" INDICATES FEW OR NO CLOUDS BELOW 12,000 FEET WITH
NO SIGNIFICANT WEATHER AND/OR OBSTRUCTIONS TO VISIBILITY.

* THESE REPORTS ARE NOT UNDER NWS QUALITY CONTROL AND MAY NOT
  REPORT WEATHER SUCH AS PRECIPITATION AND FOG.

KYZ079-080-083-085-087-088-110-112-115-119-120-230200
...EASTERN KENTUCKY...

CITY           SKY/WX    TMP DP  RH WIND       PRES   REMARKS
JACKSON        MOCLDY    73  71  93 VRB3      29.99R
LONDON         MOCLDY    77  73  87 CALM      29.97R
SOMERSET*      CLOUDY    77  70  78 CALM      29.95S
MONTICELLO*    PTCLDY    77  72  84 W14       29.96R
WILLIAMSBURG*  MOCLDY    77  72  83 CALM      29.97R
MIDDLESBORO*   PTCLDY    73  73 100 CALM      29.99R
HARLAN APT*    CLOUDY    72  70  94 CALM      30.01S
PIKE CO APT*   MOCLDY    71  71 100 CALM      29.98S
BIG SANDY APT* CLOUDY    73  72  96 S6        29.97S
MOREHEAD APT*  CLOUDY    72  70  94 S5        29.98R FOG
$$

KYZ035-036-041-042-044-050-067-078-099-230200
...CENTRAL KENTUCKY...

CITY           SKY/WX    TMP DP  RH WIND       PRES   REMARKS
MT STERLING*   CLOUDY    72  70  94 CALM      29.98R
FLEMING/MASON* CLOUDY    70  70  99 S5        29.96R
DANVILLE*      CLOUDY    72  70  94 CALM      29.98F
LEXINGTON      MOCLDY    72  70  93 W3        29.97R
FRANKFORT      CLOUDY    72  68  87 CALM      29.94R
LOUISVILLE     MOCLDY    74  71  91 SW6       29.93S
LEBANON*         N/A     72  68  88 N3        29.96S
GLASGOW*       CLOUDY    73  73 100 CALM      29.96S
BOWLING GREEN  CLOUDY    75  73  93 W5        29.97S
$$

KYZ091>093-OHZ055-061-077-WVZ005-015-034-035-042-230200
...SOUTHERN OHIO/WEST VIRGINIA...

CITY           SKY/WX    TMP DP  RH WIND       PRES   REMARKS
COVINGTON      MOCLDY    72  71  97 SW3       29.92S
COLUMBUS       MOCLDY    76  68  76 W6        29.89R
DAYTON         CLOUDY    73  64  73 W10       29.92S
WILMINGTON     PTCLDY    73  69  87 W6        29.91S
HUNTINGTON     TSTM      73  70  90 W8        29.94S FOG
CHARLESTON     CLOUDY    75  69  81 SW7       29.95R
PINEVILLE*     HVY RAIN  73  71  96 MISG      30.06R
BECKLEY        CLOUDY    72  66  81 SW6       30.04R
BLUEFIELD      CLOUDY    74  61  63 W7        30.07R
LOGAN CO APT*  MOCLDY    73  72  94 CALM      29.99R
$$

VAZ002-007-008-TNZ017-027-036-066-071-230200
...SOUTHWEST VIRGINIA/EAST TENNESSEE...

CITY           SKY/WX    TMP DP  RH WIND       PRES   REMARKS
WISE*          CLOUDY    72  72 100 CALM      30.08R
JONESVILLE*      N/A     77  72  83 CALM      30.01R
ABINGDON*      MOCLDY    78  67  69 CALM      30.03R
BRISTOL        MOCLDY    81  63  54 W5        29.99S
MORRISTOWN*    PTCLDY    81  66  61 SW5       29.97S
SEVIERVILLE*   CLEAR     82  63  51 SW3       29.96S
KNOXVILLE      CLOUDY    81  66  60 SW9       29.95F
LAFOLLETTE*    PTCLDY    73  73 100 CALM      30.00S
CROSSVILLE     CLEAR     76  67  73 W5        30.03S
NASHVILLE      TSTM      74  72  93 S7        29.98F
$$

...KEY TO REMARKS...
VSB - VISIBILITY IN MILES
WCI - WIND CHILL INDEX
HX  - HEAT INDEX

$$



USA.gov is the U.S. government's official web portal to all federal, state and local government web resources and services.